Погода в Цэцэрлэге

Монголия     47°28′13″N   101°28′26″E
темп.,
°C
ветер,
м/с
пор.,
м/с
влажн.,
%
обл.,
%
осадки,
мм/ч
давл.,
гПа
погр.,
м
10 августа, ср
ср1023:00+12ююв3395100 0.2 1011112
02:00+12с1194100 0.2 100923
05:00+10зюз119698 0.3 100912
08:00+12з11910 0.3 1009116
11:00+17зсз23680 0.0 1007503
14:00+23ссз384226 0.1 10042601
17:00+23ссз69475 0.0 10031661
20:00+17вюв11675 0.0 100511
11 августа, чт
чт1123:00+14зсз00758 0.0 100910
02:00+12з11795 0.0 101010
05:00+10з118287 0.0 101110
08:00+13ссз117157 0.0 101275
11:00+17с3461100 0.0 1010637
14:00+18зсз5752100 0.0 1010913
17:00+20ссв2246100 0.0 10081560
20:00+15юв2275100 0.0 100912
12 августа, пт
пт1223:00+12ююз2279100 0.0 101013
02:00+11ю118375 0.0 101010
05:00+11ююз118799 0.1 101010
08:00+13ю2279100 0.1 101089
11:00+18всв2261100 0.0 1008541
14:00+21всв2252100 0.0 10041013
17:00+17юв118499 2.3 100586
20:00+15юв2288100 3.3 100513
13 августа, сб
сб1323:00+13юз2185100 0.0 100610
02:00+12зюз1183100 0.0 100610
05:00+12юз1180100 0.0 100510
08:00+14зсз1179100 0.0 100516
11:00+18сз2363100 0.1 1004444
14:00+21с3445100 0.1 10031562
17:00+20ссв3352100 0.0 1002644
20:00+13ссв1182100 1.3 100613
14 августа, вс
вс1423:00+11зюз2394100 1.6 100871
02:00+9з2290100 1.7 100916
05:00+8з2294100 0.7 101025
08:00+10з11850 1.6 1010104
11:00+15зсз12635 0.9 1009394
14:00+19ссз354312 0.9 10082232
17:00+20ссв22440 0.0 10071212
20:00+14вюв22741 0.0 100918